{"data":{"norad_id":52621,"intl_designator":"2022-052Z","name":"STARLINK-3984","alt_names":[],"object_type":"PAYLOAD","status":"ACTIVE","operator":null,"country":"US","launch_date":"2022-05-14","launch_site_code":"AFETR","launch_vehicle":null,"mission":null,"orbit_class":"UNKNOWN","rcs_meters":null,"size_class":null,"mass_kg":null,"dimensions":null,"purposes":["comms"],"wikipedia_slug":null,"has_3d_model":false,"image_url":null,"decayed_at":null,"tle_current":{"epoch":"2026-09-19T22:59:32.697312Z","epoch_age_seconds":113355,"freshness":"FRESH","line1":"1 52621U 22052Z   26262.95801733  .00000077  00000+0  13125-4 0  9990","line2":"2 52621  53.1592 105.2327 0001026 102.7037 257.4081 15.35397076240472","mean_motion":15.35397076,"eccentricity":0.0001026,"inclination_deg":53.1592,"raan_deg":105.2327,"arg_perigee_deg":102.7037,"mean_anomaly_deg":257.4081,"bstar":1.3125e-5,"rev_number":24047,"period_min":93.786814011101,"perigee_km":459.03975775133,"apogee_km":460.44289038343,"semimajor_km":6837.8783240674,"source":"CELESTRAK","updated_at":"2026-09-20T09:00:40.071917Z"}}}